Location: Azul
(36.7830°S, 59.8500°W)
Time: 10:22:02
(UTC-03:00)

NOAA 19 - Pass Details

Date: 25 October 2021
Orbit: 840 x 861 km, 99.2° (Epoch: 07 December)

Event Time Altitude Azimuth Distance (km) Brightness Sun altitude
Rises 19:44:47 0° 156° (SSE) 3,471 8.3 -4.5°
Reaches altitude 10° 19:47:26 10° 146° (SE) 2,527 7.5 -5.0°
Maximum altitude 19:52:27 33° 83° (E) 1,425 5.9 -5.9°
Drops below altitude 10° 19:57:24 10° 19° (NNE) 2,495 7.3 -6.8°
Sets 19:59:59 0° 10° (N) 3,421 8.1 -7.3°
